Regional Weather Roundup
Issued by NWS Sioux Falls, SD

Home | Current Version | Previous Version | Text Only | Print | Product List | Glossary Off
Versions: 1 2 3 4 5 6 7 8 9 10 11 12 13 14 15 16 17 18 19 20 21 22 23 24 25 26 27 28 29 30 31 32 33 34 35 36 37 38 39 40 41 42 43 44 45 46 47 48 49 50

000
ASUS43 KFSD 210202
RWRFSD

WEATHER ROUNDUP FOR SE SOUTH DAKOTA/SW MINNESOTA/NW IOWA
NATIONAL WEATHER SERVICE SIOUX FALLS SD
900 PM CDT SUN AUG 20 2017

NOTE: "FAIR" INDICATES FEW OR NO CLOUDS BELOW 12,000 FEET WITH NO
SIGNIFICANT WEATHER AND OR OBSTRUCTIONS TO VISIBILITY.


SDZ038>040-050-052>070-210300-
SOUTHEAST SOUTH DAKOTA

CITY           SKY/WX    TMP DP  RH WIND       PRES   REMARKS
BROOKINGS      CLOUDY    68  58  70 NE8       30.02S
CHAMBERLAIN    CLEAR     71  60  68 NE7       29.99R
HURON          LGT RAIN  65  58  78 NE5       30.00R
MADISON        FAIR      64  63  94 E9        30.02S
MITCHELL       CLEAR     70  61  73 NE8       29.99R
SIOUX FALLS    MOCLDY    72  63  73 NE8       30.00R
WINNER         FAIR      72  60  66 E10       29.99R
$$

MNZ071-072-080-081-089-090-097-098-210300-
SOUTHWEST MINNESOTA

CITY           SKY/WX    TMP DP  RH WIND       PRES   REMARKS
FAIRMONT       MOCLDY    74  71  91 N7        30.01R
JACKSON        MOCLDY    70  68  94 CALM      30.03R
LUVERNE        CLOUDY    70  61  73 NE9       30.01R
MARSHALL       MOCLDY    65  63  93 CALM      30.02S
MONTEVIDEO     CLEAR     63  55  77 CALM      30.02S
PIPESTONE      PTCLDY    66  61  82 NE5       30.03S
REDWOOD FALLS  CLOUDY    69  64  84 NW5       30.00F
TRACY          MOCLDY    67  65  91 CALM      30.03S
WINDOM         CLOUDY    70  66  88 N8        30.03R
WORTHINGTON    CLOUDY    69  65  86 N6        30.04R
$$

IAZ001>003-012>014-020>022-031-032-NEZ013-014-SDZ071-210300-
NORTHWEST IOWA

CITY           SKY/WX    TMP DP  RH WIND       PRES   REMARKS
CHEROKEE       PTCLDY    76  71  84 E3        29.98R
DENISON        CLEAR     72  68  88 CALM      30.00R
ESTHERVILLE    CLOUDY    74  72  93 N6        30.00R
ORANGE CITY    CLEAR     79  73  83 CALM      29.99R
SHELDON        CLEAR     73  72  94 NE9       29.98R
SIOUX CITY     MOCLDY    76  69  79 SE7       29.95S
SPENCER        PTCLDY    75  71  87 NE7       30.00R
STORM LAKE     MOCLDY    73  68  83 CALM      30.00R
$$

ABBREVIATIONS USED IN REMARKS
   TC - TEMPERATURE IN CELSIUS
  WCI - WIND CHILL INDEX
   HX - HEAT INDEX
  VSB - VISIBILITY





USA.gov is the U.S. government's official web portal to all federal, state and local government web resources and services.